World > North America > United States > Pennsylvania

Fox Chase Manor, Pennsylvania Regional Weather

Lat: 40.10N, Lon: 75.11W
Wx Zone: PAZ068Web Search

Pass this page to a friend. Tell them to point their camera at the QR Code near the bottom of this page.

Feedback


°F Click to change Fox Chase Manor hourly weather to Imperial units.Click to change Fox Chase Manor hourly weather to Metric units. °C
Fox Chase Manor Weather Map
UTC Time: 5/15/2021, 05:02
Your Time:

Fox Chase Manor, PA Regional Weather

Expires:202105150500;;133035
ASUS41 KPHI 150412
RWRPHI

REGIONAL WEATHER ROUNDUP
NATIONAL WEATHER SERVICE MOUNT HOLLY NJ
1200 AM EDT SAT MAY 15 2021

NOTE:  "FAIR" INDICATES FEW OR NO CLOUDS BELOW 12,000 FEET WITH NO
SIGNIFICANT WEATHER AND/OR OBSTRUCTIONS TO VISIBILITY.

 * = STATION DOES NOT REPORT PRECIPITATION (E.G. RAIN, SNOW, ETC.) 
        OR FOG.


PAZ043-044-047-054-055-060>062-066>071-150500-
EASTERN PENNSYLVANIA
  
CITY           SKY/WX    TMP DP  RH WIND       PRES   REMARKS
PHILADELPHIA   CLEAR     58  42  55 S7        30.21F                  
NORTH PHILA    CLEAR     59  36  42 VRB3      30.22F                  
BLUE BELL*     CLEAR     49  42  76 CALM      30.22S                  
DOYLESTOWN     CLEAR     55  37  50 CALM      30.20F                  
QUAKERTOWN*    CLEAR     50  41  71 CALM      30.22S                  
PERKASIE*      FAIR      46  41  81 W3        30.22S                  
POTTSTOWN      CLEAR     49  39  68 CALM      30.23S                  
LANCASTER      PTCLDY    55  37  50 NE3       30.21S                  
COATESVILLE    CLEAR     50  39  66 CALM      30.23S                  
WEST CHESTER   FAIR      54  41  62 CALM      30.22S                  
READING        PTCLDY    55  43  63 CALM      30.20S                  
ALLENTOWN      PTCLDY    52  39  61 CALM      30.21R                  
QN CITY/ALNTWN FAIR      52  41  66 SW3       30.22S                  
MOUNT POCONO   PTCLDY    45  34  65 CALM      30.23S                  
LEHIGHTON      FAIR      41  41 100 CALM      30.23S                  
WILKES BARRE   PTCLDY    54  36  50 E6        30.21S                  

$$

SKY/WX - Weather  TMP - Temperature  DP - Dew Point  RH - Relative Humidity
WIND - Wind Direction/Speed PRES - Barometric Pressure VSB - Visibility
WCI - Wind Chill Index E13G22 Wind - East Wind 13 mph/Gusts of 22 mph